Location: Street
(51.1247°N, 2.7429°W)
Time: 14:55:34
(UTC+01:00)

Explorer 7 - Visible Passes

Search period start: 23 June 2021 00:00
Search period end: 03 July 2021 00:00
Orbit: 484 x 677 km, 50.3° (Epoch: 22 June)

Date Brightness Start Highest point End Pass type
(mag) Time Alt. Az. Time Alt. Az. Time Alt. Az.
23 Jun 7.1 01:07:59 10° W 01:12:47 67° SSW 01:17:21 10° ESE visible
23 Jun 7.9 02:48:53 10° W 02:52:53 28° SW 02:56:41 10° SSE visible
23 Jun 7.1 23:31:40 10° W 23:36:35 83° S 23:41:20 10° E visible
24 Jun 7.2 01:12:20 10° W 01:17:04 56° SSW 01:21:34 10° ESE visible
24 Jun 8.3 02:53:31 10° W 02:56:58 20° SW 02:58:32 17° SSW visible
24 Jun 7.1 23:36:01 10° W 23:40:55 81° S 23:45:39 10° E visible
25 Jun 7.4 01:16:43 10° W 01:21:19 45° SSW 01:24:25 18° SE visible
25 Jun 8.8 02:58:29 10° WSW 03:00:36 14° SW 03:00:36 14° SW visible
25 Jun 7.1 23:40:22 10° W 23:45:16 75° S 23:49:59 10° ESE visible
26 Jun 7.8 01:21:08 10° W 01:25:30 35° SSW 01:27:12 26° S visible
26 Jun 7.2 23:44:43 10° W 23:49:35 65° SSW 23:54:06 11° ESE visible
27 Jun 8.1 01:25:39 10° W 01:29:39 26° SW 01:30:19 26° SSW visible
27 Jun 7.2 22:08:26 10° W 22:13:22 83° S 22:18:12 10° E visible
27 Jun 7.3 23:49:05 10° W 23:53:51 54° SSW 23:57:25 16° SE visible
28 Jun 8.6 01:30:19 10° W 01:33:38 19° SW 01:33:38 19° SW visible
28 Jun 7.2 22:12:47 10° W 22:17:43 80° S 22:22:32 10° E visible
28 Jun 7.6 23:53:28 10° W 23:58:05 43° SSW 00:00:51 21° SSE visible
29 Jun 9.1 01:35:23 10° WSW 01:37:05 13° SW 01:37:05 13° SW visible
29 Jun 7.3 22:17:08 10° W 22:22:02 73° SSW 22:26:50 10° ESE visible
29 Jun 8.0 23:57:53 10° W 00:02:16 33° SSW 00:04:24 23° SSE visible
30 Jun 7.3 22:21:29 10° W 22:26:20 63° SSW 22:31:06 10° ESE visible
01 Jul 8.4 00:02:25 10° W 00:06:24 25° SW 00:08:02 21° S visible
01 Jul 7.6 22:25:50 10° W 22:30:36 52° SSW 22:35:17 10° SE visible
02 Jul 8.8 00:07:08 10° W 00:10:28 18° SW 00:11:43 17° SSW visible
02 Jul 7.9 22:30:13 10° W 22:34:50 41° SSW 22:39:13 11° SE visible
